TimeEDT,TemperatureF,Dew PointF,Humidity,Sea Level PressureIn,VisibilityMPH,Wind Direction,Wind SpeedMPH,Gust SpeedMPH,PrecipitationIn,Events,Conditions,WindDirDegrees,DateUTC
12:15 AM,53.6,51.8,94,30.15,10.0,Calm,Calm,-,N/A,,Clear,0,2013-03-11 04:15:00
12:35 AM,53.6,51.8,94,30.15,10.0,Calm,Calm,-,N/A,,Clear,0,2013-03-11 04:35:00
12:55 AM,53.6,51.8,94,30.14,10.0,Calm,Calm,-,N/A,,Clear,0,2013-03-11 04:55:00
1:15 AM,50.0,50.0,100,30.13,10.0,Calm,Calm,-,N/A,,Clear,0,2013-03-11 05:15:00
1:35 AM,51.8,50.0,94,30.13,10.0,Calm,Calm,-,N/A,,Clear,0,2013-03-11 05:35:00
1:55 AM,48.2,48.2,100,30.13,10.0,Calm,Calm,-,N/A,,Clear,0,2013-03-11 05:55:00
2:15 AM,48.2,48.2,100,30.13,9.0,Calm,Calm,-,N/A,,Clear,0,2013-03-11 06:15:00
2:35 AM,48.2,48.2,100,30.13,7.0,Calm,Calm,-,N/A,,Clear,0,2013-03-11 06:35:00
2:55 AM,46.4,46.4,100,30.12,9.0,Calm,Calm,-,N/A,,Clear,0,2013-03-11 06:55:00
3:15 AM,46.4,46.4,100,30.11,7.0,Calm,Calm,-,N/A,,Clear,0,2013-03-11 07:15:00
3:35 AM,46.4,46.4,100,30.10,10.0,Calm,Calm,-,N/A,,Clear,0,2013-03-11 07:35:00
3:55 AM,48.2,48.2,100,30.09,4.0,Calm,Calm,-,N/A,,Clear,0,2013-03-11 07:55:00
4:15 AM,46.4,46.4,100,30.08,7.0,Calm,Calm,-,N/A,,Clear,0,2013-03-11 08:15:00
4:35 AM,46.4,46.4,100,30.06,6.0,Calm,Calm,-,N/A,,Clear,0,2013-03-11 08:35:00
4:55 AM,46.4,46.4,100,30.06,5.0,Calm,Calm,-,N/A,,Clear,0,2013-03-11 08:55:00
5:15 AM,46.4,46.4,100,30.06,0.5,Calm,Calm,-,N/A,Fog,Fog,0,2013-03-11 09:15:00
5:35 AM,46.4,46.4,100,30.06,1.2,Calm,Calm,-,N/A,,Clear,0,2013-03-11 09:35:00
5:55 AM,46.4,46.4,100,30.06,5.0,Calm,Calm,-,N/A,,Clear,0,2013-03-11 09:55:00
6:15 AM,46.4,46.4,100,30.06,0.8,Calm,Calm,-,N/A,,Mist,0,2013-03-11 10:15:00
6:35 AM,46.4,46.4,100,30.06,3.0,Calm,Calm,-,N/A,,Clear,0,2013-03-11 10:35:00
6:50 AM,44.6,44.6,100,30.06,5.0,Calm,Calm,-,N/A,,Clear,0,2013-03-11 10:50:00
6:55 AM,44.6,44.6,100,30.06,6.0,Calm,Calm,-,N/A,,Clear,0,2013-03-11 10:55:00
7:15 AM,46.4,46.4,100,30.06,4.0,Calm,Calm,-,N/A,,Clear,0,2013-03-11 11:15:00
7:35 AM,44.6,44.6,100,30.06,7.0,Calm,Calm,-,N/A,,Clear,0,2013-03-11 11:35:00
7:50 AM,44.6,44.6,100,30.06,10.0,Calm,Calm,-,N/A,,Clear,0,2013-03-11 11:50:00
8:50 AM,50.0,50.0,100,30.07,10.0,Calm,Calm,-,N/A,,Clear,0,2013-03-11 12:50:00
9:50 AM,64.4,57.2,77,30.07,10.0,SSE,9.2,-,N/A,,Clear,150,2013-03-11 13:50:00
10:50 AM,68.0,55.4,64,30.08,10.0,South,11.5,18.4,N/A,,Clear,170,2013-03-11 14:50:00
11:50 AM,69.8,55.4,60,30.09,10.0,South,11.5,21.9,N/A,,Scattered Clouds,170,2013-03-11 15:50:00
12:50 PM,73.4,55.4,53,30.06,10.0,South,13.8,21.9,N/A,,Mostly Cloudy,180,2013-03-11 16:50:00
1:50 PM,75.2,55.4,50,30.04,10.0,South,12.7,-,N/A,,Mostly Cloudy,180,2013-03-11 17:50:00
2:50 PM,73.4,55.4,53,29.99,10.0,SSE,9.2,-,N/A,,Mostly Cloudy,150,2013-03-11 18:50:00
3:50 PM,75.2,55.4,50,29.96,10.0,SSE,11.5,-,N/A,,Mostly Cloudy,160,2013-03-11 19:50:00
4:50 PM,75.2,55.4,50,29.94,10.0,South,5.8,-,N/A,,Mostly Cloudy,180,2013-03-11 20:50:00
5:50 PM,75.2,55.4,50,29.93,10.0,SSE,9.2,-,N/A,,Mostly Cloudy,160,2013-03-11 21:50:00
6:50 PM,73.4,57.2,57,29.92,10.0,SSE,8.1,-,N/A,,Clear,150,2013-03-11 22:50:00
7:50 PM,68.0,57.2,68,29.91,10.0,Calm,Calm,-,N/A,,Clear,0,2013-03-11 23:50:00
8:15 PM,68.0,57.2,68,29.91,10.0,ESE,4.6,-,N/A,,Partly Cloudy,110,2013-03-12 00:15:00
8:35 PM,68.0,57.2,68,29.92,10.0,ESE,3.5,-,N/A,,Partly Cloudy,120,2013-03-12 00:35:00
8:55 PM,66.2,57.2,73,29.92,10.0,Calm,Calm,-,N/A,,Clear,0,2013-03-12 00:55:00
9:15 PM,66.2,57.2,73,29.94,10.0,South,3.5,-,N/A,,Clear,170,2013-03-12 01:15:00
9:35 PM,66.2,57.2,73,29.95,10.0,Calm,Calm,-,N/A,,Clear,0,2013-03-12 01:35:00
9:55 PM,66.2,57.2,73,29.95,10.0,Calm,Calm,-,N/A,,Scattered Clouds,0,2013-03-12 01:55:00
10:15 PM,66.2,57.2,73,29.96,10.0,SE,3.5,-,N/A,,Scattered Clouds,140,2013-03-12 02:15:00
10:35 PM,66.2,57.2,73,29.96,10.0,SE,3.5,-,N/A,,Partly Cloudy,140,2013-03-12 02:35:00
10:55 PM,66.2,57.2,73,29.95,10.0,SE,3.5,-,N/A,Rain,Light Rain,130,2013-03-12 02:55:00
11:15 PM,66.2,57.2,73,29.94,10.0,SE,5.8,-,N/A,,Partly Cloudy,140,2013-03-12 03:15:00
11:55 PM,66.2,57.2,73,29.93,10.0,SE,5.8,-,N/A,,Clear,140,2013-03-12 03:55:00